Regional Weather Roundup
Issued by NWS

Home | Current Version | Previous Version | Text Only | Print | Product List | Glossary Off
Versions: 1 2 3 4 5 6 7 8 9 10 11 12 13 14 15 16 17 18 19 20 21 22 23 24 25 26 27 28 29 30 31 32 33 34 35 36 37 38 39 40 41 42 43 44 45 46 47 48 49 50

000
ASUS43 KLOT 252007
RWRIL

ILLINOIS REGIONAL WEATHER ROUNDUP
NATIONAL WEATHER SERVICE CHICAGO/ROMEOVILLE IL
300 PM CDT TUE APR 25 2017

NOTE: "FAIR" INDICATES FEW OR NO CLOUDS BELOW 12,000 FEET WITH NO
SIGNIFICANT WEATHER AND/OR OBSTRUCTIONS TO VISIBILITY.

* THESE STATIONS ARE NOT UNDER NWS QUALITY CONTROL. THEY ALSO MAY NOT
  REPORT WEATHER SUCH AS PRECIPITATION OR FOG.

ILZ001-002-007-009-015-016-024-252100-
NORTHWEST ILLINOIS

CITY           SKY/WX    TMP DP  RH WIND       PRES   REMARKS
MOLINE         PTSUNNY   79  45  29 SE17G28   29.49F
STERLING*      CLOUDY    77  45  32 SE16G24   29.55F
SAVANNA*       MOSUNNY   77  42  28 SE22G28   29.53F
$$

ILZ003-004-008-010-011-017-018-252100-
NORTH CENTRAL ILLINOIS

CITY           SKY/WX    TMP DP  RH WIND       PRES   REMARKS
ROCKFORD       CLOUDY    76  49  38 SE17      29.57F
FREEPORT*      CLOUDY    73  46  38 SE16G22   29.57S
ROCHELLE*      MOSUNNY   77  49  36 S25       29.56F
DE KALB*       CLOUDY    74  50  41 SE21      29.59F
PERU*          CLOUDY    76  44  31 S21G31    29.56F
$$

ILZ005-006-012>014-019>023-252100-
NORTHEAST ILLINOIS

CITY           SKY/WX    TMP DP  RH WIND       PRES   REMARKS
CHICAGO-OHARE  CLOUDY    74  48  39 S14G21    29.61F
CHICAGO-MIDWAY CLOUDY    77  48  35 S10G21    29.61F
AURORA         CLOUDY    75  50  41 SE16      29.59F
LANSING*       MOSUNNY   76  55  46 S17G23    29.63F
JOLIET*        CLOUDY    77  52  41 SE10G17   29.59F
WAUKEGAN       MOSUNNY   68  50  52 SE13G20   29.64F
DUPAGE AIRPORT CLOUDY    75  51  43 SE14G22   29.60F
KANKAKEE*      SUNNY     80  51  36 S16G24    29.62F
WHEELING       MOSUNNY   74  49  41 S16G23    29.63F
MORRIS*        MOSUNNY   78  46  32 S14G24    29.58S
ROMEOVILLE*    CLOUDY    74  54  49 SE13G22   29.60F
NORTHERLY ISL    N/A     60  50  69 SE2         N/A
$$

LMZ740>746-252100-
SOUTHERN LAKE MICHIGAN

STATION/POSITION SKY/WX   TEMP    WIND        PRES    VSBY  WAVE
                          AIR SEA DIR/SP/G                  HT/PER
                          (F)     (DEG/KT/KT) (MB)    (MI)  (FT/S)
SOUTHERN BUOY              48 41  110/  8/  8 1005.5          1/ 3
HARRISON CRIB              63     110/ 21/ 22   N/A
BURNHAM HARBOR             61      CALM  / 13   N/A
CALUMET HARBOR             76     150/  9/ 14 1002.7F
BURNS HARBOR               75     160/  7/ 22 1004.4F
MICHIGAN CITY              72     180/ 13/ 16   N/A
ST. JOSEPH                 64 51  170/  8/ 10 1004.5          1
$$

ILZ025>027-034>036-040-047-049-050-058-095>099-252100-
WEST-CENTRAL ILLINOIS

CITY           SKY/WX    TMP DP  RH WIND       PRES   REMARKS
QUINCY         MOSUNNY   77  46  33 S24G32    29.45F
GALESBURG*     SUNNY     77  43  30 SE20G28   29.49S
MACOMB*        SUNNY     80  41  24 SE25G33   29.50F
JACKSONVILLE*  MOSUNNY   79  46  31 SE24G31   29.50F
PITTSFIELD*    MOSUNNY   80  49  33 SE25      29.48F
$$

ILZ028>032-037-038-041>044-048-051>054-059>061-252100-
CENTRAL ILLINOIS

CITY           SKY/WX    TMP DP  RH WIND       PRES   REMARKS
PONTIAC        CLOUDY    79  47  32 S20G25    29.60S
BLOOMINGTON    CLOUDY    77  51  40 S23G31    29.58F
DECATUR        MOSUNNY   77  54  44 S22G30    29.58F
PEORIA         PTSUNNY   79  42  26 SE17G29   29.52F
LACON*         PTSUNNY   78  49  36 S21G28    29.53F
LINCOLN*       CLOUDY    80  48  33 S22G30    29.55F
SPRINGFIELD    MOSUNNY   80  45  28 SE22G33   29.53F
TAYLORVILLE    CLOUDY    79  50  36 SE20G28   29.55F
$$

ILZ033-039-045-046-055>057-062-063-252100-
EAST-CENTRAL ILLINOIS

CITY           SKY/WX    TMP DP  RH WIND       PRES   REMARKS
CHAMPAIGN      MOSUNNY   80  49  33 S24       29.61F
RANTOUL*       SUNNY     80  50  35 S17G25    29.61F
MATTOON        CLOUDY    76  56  49 S18G29    29.62F
PARIS*         SUNNY     78  55  43 S20       29.66F
$$

ILZ079-100>102-252100-
SOUTHWEST ILLINOIS

CITY           SKY/WX    TMP DP  RH WIND       PRES   REMARKS
ALTON          PTSUNNY   77  48  36 S17G26    29.54F
BELLEVILLE     SUNNY     80  53  38 E17G31    29.54F HX  80
CAHOKIA*       MOSUNNY   80  48  32 S20G31    29.53F
SPARTA*        SUNNY     76  52  42 S20G28    29.60F
$$

ILZ064>066-069>071-074>076-080>082-084>086-088>090-092>094-252100-
SOUTH-CENTRAL ILLINOIS

CITY           SKY/WX    TMP DP  RH WIND       PRES   REMARKS
CARBONDALE     MOSUNNY   77  56  48 S13G23    29.62F
CAIRO*         SUNNY     77  55  45 SE14      29.64F
EFFINGHAM*     MOSUNNY   77  56  47 SE15G26   29.63F
MARION         MOSUNNY   79  52  38 S12       29.65F
MT. VERNON     MOSUNNY   79  57  46 S16       29.62F HX  80
CENTRALIA*     SUNNY     80  58  46 SE17G23   29.60F HX  80
SALEM*         MOSUNNY   79  53  40 SE14G24   29.61F
METROPOLIS*    SUNNY     79  54  41 S9        29.66F
$$

ILZ067-068-072-073-078-083-087-091-252100-
SOUTHEAST ILLINOIS

CITY           SKY/WX    TMP DP  RH WIND       PRES   REMARKS
LAWRENCEVILLE  SUNNY     79  55  43 S16G25    29.67F
FLORA*         SUNNY     78  56  46 SE20      29.64F
FAIRFIELD*     SUNNY     78  56  47 S9        29.64F
HARRISBURG*    SUNNY     77  59  54 S14G20    29.66F
ROBINSON*      SUNNY     78  55  45 SE10G20   29.67F
CARMI*         SUNNY     77  58  52 SE15G21   29.65F
$$

ABBREVIATIONS USED IN REMARKS
   TC - TEMPERATURE IN CELSIUS
  WCI - WIND CHILL INDEX
   HX - HEAT INDEX
  VSB - VISIBILITY
$$





USA.gov is the U.S. government's official web portal to all federal, state and local government web resources and services.